DW8947 Weather Reports


time (UTC)temp
C
wind
direction
speed
KPH
gust
KPH
rain 1hr
cm
rain 24hr
cm
rain mn
cm
humidity
%
barometer
mb
20260905061204 14 140 0.0 0.0 0.00 0.00 0.00 86 1014.3
20260905055205 14 140 0.0 0.0 0.00 0.00 0.00 85 1014.3
20260905054205 14 140 0.0 1.6 0.00 0.00 0.00 85 1014.3
20260905052705 14 140 0.0 0.0 0.00 0.00 0.00 84 1014.3
20260905051205 14 140 0.0 0.0 0.00 0.00 0.00 84 1014.2
20260905050204 14 140 0.0 3.2 0.00 0.00 0.00 84 1014.2
20260905045705 14 140 0.0 0.0 0.00 0.00 0.00 83 1014.3
20260905044205 14 140 0.0 0.0 0.00 0.00 0.00 83 1014.3
20260905043705 15 140 0.0 3.2 0.00 0.00 0.00 82 1014.3
20260905042705 15 140 0.0 0.0 0.00 0.00 0.00 81 1014.3
20260905042205 15 140 0.0 0.0 0.00 0.00 0.00 81 1014.2
20260905041204 15 140 0.0 0.0 0.00 0.00 0.00 79 1014.2
20260905034204 15 140 0.0 0.0 0.00 0.00 0.00 77 1014.0
20260905032705 16 140 0.0 3.2 0.00 0.00 0.00 76 1013.9
20260905032205 16 140 0.0 0.0 0.00 0.00 0.00 76 1013.9
20260905031705 16 140 0.0 3.2 0.00 0.00 0.00 76 1013.9
20260905031204 16 140 0.0 0.0 0.00 0.00 0.00 76 1013.8
20260905024705 16 140 0.0 0.0 0.00 0.00 0.00 73 1013.6
20260905024204 17 140 0.0 1.6 0.00 0.00 0.00 73 1013.6
20260905023704 17 140 0.0 3.2 0.00 0.00 0.00 73 1013.6
20260905022704 17 140 0.0 3.2 0.00 0.00 0.00 73 1013.6
20260905015205 18 94 0.0 0.0 0.00 0.00 0.00 69 1013.5
20260905014705 18 94 0.0 3.2 0.00 0.00 0.00 69 1013.5
20260905013204 18 176 0.0 3.2 0.00 0.00 0.00 68 1013.3
20260905012705 18 197 0.0 3.2 0.00 0.00 0.00 68 1013.2
20260905012205 18 244 1.6 3.2 0.00 0.00 0.00 66 1013.1
20260905010705 18 16 0.0 1.6 0.00 0.00 0.00 66 1013.0
20260905005204 18 173 0.0 3.2 0.00 0.00 0.00 64 1012.8
20260905003704 19 339 1.6 3.2 0.00 0.00 0.00 62 1012.5
20260905003204 19 298 1.6 3.2 0.00 0.00 0.00 62 1012.5
20260905002205 19 303 1.6 4.8 0.00 0.00 0.00 62 1012.3
20260905001704 19 8 0.0 3.2 0.00 0.00 0.00 65 1012.3
20260905000205 20 331 1.6 3.2 0.00 0.00 0.00 65 1012.2
20260904235704 20 89 1.6 3.2 0.00 0.00 0.00 61 1012.2
20260904234704 20 146 0.0 3.2 0.00 0.00 0.00 62 1012.2
20260904234205 20 132 1.6 3.2 0.00 0.00 0.00 62 1012.2
20260904232204 20 47 1.6 1.6 0.00 0.00 0.00 66 1012.2
20260904231705 20 167 0.0 3.2 0.00 0.00 0.00 64 1012.1
20260904231205 20 229 0.0 3.2 0.00 0.00 0.00 63 1012.0
20260904225705 20 160 1.6 1.6 0.00 0.00 0.00 61 1012.0
20260904224204 20 155 0.0 4.8 0.00 0.00 0.00 64 1011.9
20260904223204 19 174 1.6 3.2 0.00 0.00 0.00 64 1012.0
20260904222204 19 335 0.0 3.2 0.00 0.00 0.00 63 1011.9
20260904215704 18 191 0.0 3.2 0.00 0.00 0.00 65 1012.0
20260904215205 18 245 0.0 3.2 0.00 0.00 0.00 65 1012.0
20260904214705 18 277 0.0 3.2 0.00 0.00 0.00 65 1011.9
20260904214205 18 238 1.6 3.2 0.00 0.00 0.00 64 1012.0
20260904213704 18 260 0.0 4.8 0.00 0.00 0.00 64 1012.1
20260904213205 18 318 1.6 4.8 0.00 0.00 0.00 66 1012.0
20260904212204 18 161 0.0 1.6 0.00 0.00 0.00 67 1012.0
20260904211205 19 281 1.6 3.2 0.00 0.00 0.00 63 1011.9
20260904210705 19 176 1.6 3.2 0.00 0.00 0.00 64 1011.9
20260904210204 19 312 0.0 3.2 0.00 0.00 0.00 64 1011.8
20260904205705 19 302 0.0 1.6 0.00 0.00 0.00 62 1011.9
20260904204204 20 223 1.6 4.8 0.00 0.00 0.00 56 1011.8
20260904201704 21 156 1.6 3.2 0.00 0.00 0.00 56 1011.9
20260904201205 21 135 1.6 3.2 0.00 0.00 0.00 59 1011.9
20260904193704 20 317 0.0 3.2 0.00 0.00 0.00 64 1012.0
20260904193205 20 310 1.6 1.6 0.00 0.00 0.00 65 1012.0
20260904191705 18 77 0.0 3.2 0.00 0.00 0.00 73 1012.1
20260904191205 18 239 0.0 3.2 0.00 0.00 0.00 71 1012.1
20260904190204 17 105 0.0 3.2 0.00 0.00 0.00 74 1012.1
20260904185704 17 17 1.6 3.2 0.00 0.00 0.00 75 1012.1
20260904184705 16 19 0.0 3.2 0.00 0.00 0.00 82 1012.2
20260904184204 16 19 0.0 3.2 0.00 0.00 0.00 80 1012.3
20260904183704 16 19 0.0 0.0 0.00 0.00 0.00 81 1012.3
20260904183204 16 19 0.0 3.2 0.00 0.00 0.00 81 1012.3
20260904182204 16 19 0.0 3.2 0.00 0.00 0.00 81 1012.2
20260904181204 16 75 0.0 3.2 0.00 0.00 0.00 84 1012.1
20260904175205 15 61 1.6 3.2 0.00 0.00 0.00 83 1012.1
20260904174705 15 61 0.0 3.2 0.00 0.00 0.00 83 1012.1
20260904173704 15 61 0.0 3.2 0.00 0.00 0.00 85 1012.1
20260904173204 15 61 0.0 3.2 0.00 0.00 0.00 85 1012.1
20260904172705 15 61 0.0 3.2 0.00 0.00 0.00 85 1012.2
20260904171705 15 61 0.0 3.2 0.00 0.00 0.00 85 1012.1
20260904171204 15 61 0.0 0.0 0.00 0.00 0.00 85 1012.1
20260904170704 15 61 0.0 0.0 0.00 0.00 0.00 85 1012.1
20260904170204 15 61 0.0 3.2 0.00 0.00 0.00 86 1012.0
20260904165204 15 61 0.0 3.2 0.00 0.00 0.00 85 1012.0
20260904164704 15 61 1.6 3.2 0.00 0.00 0.00 85 1011.9
20260904163704 14 273 0.0 3.2 0.00 0.00 0.00 85 1012.0
20260904162704 14 273 0.0 3.2 0.00 0.00 0.00 86 1012.0
20260904161705 14 318 0.0 3.2 0.00 0.00 0.00 88 1012.0
20260904160705 13 341 0.0 3.2 0.00 0.00 0.00 89 1012.0
20260904154704 12 116 0.0 3.2 0.00 0.00 0.00 91 1011.9
20260904154205 12 116 0.0 3.2 0.00 0.00 0.00 91 1011.9
20260904152204 12 116 0.0 0.0 0.00 0.00 0.00 92 1011.8
20260904151704 12 116 0.0 0.0 0.00 0.00 0.00 92 1011.7
20260904151205 12 116 0.0 0.0 0.00 0.00 0.00 92 1011.7
20260904150705 12 116 0.0 0.0 0.00 0.00 0.00 92 1011.6
20260904150204 12 116 0.0 0.0 0.00 0.00 0.00 92 1011.5
20260904145704 12 116 0.0 0.0 0.00 0.00 0.00 92 1011.4
20260904145204 12 116 0.0 0.0 0.00 0.00 0.00 92 1011.3
20260904144704 12 116 0.0 0.0 0.00 0.00 0.00 92 1011.3
20260904142704 12 116 0.0 0.0 0.00 0.00 0.00 92 1011.2
20260904142205 12 116 0.0 0.0 0.00 0.00 0.00 92 1011.1
20260904141705 12 116 0.0 0.0 0.00 0.03 0.00 92 1011.1
20260904140704 12 116 0.0 0.0 0.00 0.03 0.00 92 1011.0
20260904135704 12 116 0.0 0.0 0.00 0.03 0.00 92 1010.9
20260904131204 12 116 0.0 0.0 0.00 0.03 0.00 91 1010.2
20260904130705 12 116 0.0 0.0 0.00 0.03 0.00 91 1010.2
20260904130204 12 116 0.0 3.2 0.00 0.03 0.00 91 1010.1
20260904125205 12 116 0.0 3.2 0.00 0.03 0.00 91 1010.1
20260904123205 12 116 0.0 3.2 0.00 0.03 0.00 91 1010.1
20260904122704 12 116 0.0 3.2 0.00 0.03 0.00 90 1010.1
20260904120704 12 116 0.0 3.2 0.00 0.03 0.00 91 1010.1
20260904114205 12 116 0.0 3.2 0.00 0.03 0.00 90 1009.7
20260904113704 12 116 0.0 3.2 0.00 0.03 0.00 90 1009.6
20260904113205 12 116 0.0 0.0 0.00 0.03 0.00 90 1009.6
20260904105704 12 116 0.0 3.2 0.00 0.08 0.00 90 1009.5
20260904104704 12 116 0.0 0.0 0.00 0.08 0.00 89 1009.6
20260904104204 12 116 0.0 0.0 0.00 0.08 0.00 89 1009.5
20260904103705 12 116 0.0 0.0 0.00 0.08 0.00 89 1009.4
20260904102704 12 116 0.0 0.0 0.00 0.08 0.00 89 1009.5
20260904102204 12 116 0.0 0.0 0.00 0.08 0.00 89 1009.5
20260904101204 12 116 0.0 0.0 0.00 0.08 0.00 88 1009.3
20260904100704 12 116 0.0 1.6 0.00 0.08 0.00 88 1009.3
20260904095704 12 116 0.0 3.2 0.00 0.08 0.00 88 1009.1
20260904094705 12 116 0.0 0.0 0.00 0.08 0.00 88 1009.2
20260904092204 12 89 0.0 1.6 0.00 0.08 0.00 86 1009.0
20260904091704 12 69 0.0 0.0 0.00 0.08 0.00 84 1008.9
20260904091204 12 69 0.0 0.0 0.00 0.08 0.00 84 1009.0
20260904090704 12 69 0.0 0.0 0.00 0.08 0.00 85 1009.1
20260904090204 12 69 0.0 0.0 0.00 0.08 0.00 84 1009.1
20260904085204 13 69 0.0 0.0 0.00 0.08 0.00 84 1009.2
20260904084204 13 69 0.0 0.0 0.00 0.08 0.00 85 1009.3
20260904083205 13 69 0.0 0.0 0.00 0.08 0.00 84 1009.4
20260904082204 13 69 0.0 0.0 0.00 0.08 0.00 84 1009.5
20260904080704 13 69 0.0 0.0 0.00 0.08 0.00 82 1009.5
20260904075704 13 69 0.0 0.0 0.00 0.08 0.00 83 1009.4
20260904074704 13 69 0.0 0.0 0.00 0.08 0.00 80 1009.4
20260904074204 13 69 0.0 0.0 0.00 0.08 0.00 80 1009.4
20260904073705 13 69 0.0 0.0 0.00 0.08 0.00 81 1009.3
20260904073205 13 69 0.0 0.0 0.00 0.08 0.00 81 1009.3
20260904070705 13 69 0.0 0.0 0.00 0.08 0.00 80 1009.1
20260904070204 13 69 0.0 0.0 0.00 0.08 0.00 80 1009.1
20260904064704 13 69 0.0 0.0 0.00 0.08 0.08 82 1009.2
20260904063204 13 69 0.0 0.0 0.00 0.08 0.08 80 1009.1
20260904062704 13 69 0.0 0.0 0.00 0.08 0.08 80 1009.1